FW6908 Weather Reports


time (UTC)temp
C
wind
direction
speed
KPH
gust
KPH
rain 1hr
cm
rain 24hr
cm
rain mn
cm
humidity
%
barometer
mb
20260903184035 27 86 8.0 19.3 0.00 0.00 0.00 43 1014.2
20260903183534 27 78 9.7 20.9 0.00 0.00 0.00 43 1014.2
20260903183035 28 80 9.7 22.5 0.00 0.00 0.00 43 1014.1
20260903182535 28 101 9.7 22.5 0.00 0.00 0.00 43 1014.1
20260903182035 28 98 12.9 20.9 0.00 0.00 0.00 43 1014.1
20260903181534 28 105 12.9 20.9 0.00 0.00 0.00 43 1014.0
20260903181036 28 88 14.5 24.1 0.00 0.00 0.00 43 1014.1
20260903180535 28 59 16.1 24.1 0.00 0.00 0.00 43 1014.0
20260903180037 28 80 12.9 20.9 0.00 0.00 0.00 43 1014.0
20260903175533 28 69 11.3 20.9 0.00 0.00 0.00 43 1014.1
20260903175033 28 128 12.9 20.9 0.00 0.00 0.00 43 1014.0
20260903174537 28 57 11.3 20.9 0.00 0.00 0.00 43 1014.0
20260903174033 28 78 12.9 20.9 0.00 0.00 0.00 43 1013.9
20260903173537 28 86 11.3 20.9 0.00 0.00 0.00 43 1013.8
20260903173037 28 86 9.7 20.9 0.00 0.00 0.00 43 1013.9
20260903172532 28 56 9.7 22.5 0.00 0.00 0.00 43 1013.9
20260903172034 28 59 8.0 22.5 0.00 0.00 0.00 43 1013.9
20260903171535 28 49 12.9 20.9 0.00 0.00 0.00 43 1013.8
20260903171033 28 82 9.7 24.1 0.00 0.00 0.00 43 1013.8
20260903170531 28 46 11.3 25.7 0.00 0.00 0.00 43 1013.8
20260903170033 28 58 11.3 24.1 0.00 0.00 0.00 43 1013.7
20260903165530 28 50 12.9 24.1 0.00 0.00 0.00 43 1013.6
20260903165032 28 61 12.9 25.7 0.00 0.00 0.00 43 1013.6
20260903164530 29 25 14.5 29.0 0.00 0.00 0.00 43 1013.6
20260903164032 29 53 14.5 29.0 0.00 0.00 0.00 42 1013.5
20260903163531 29 101 12.9 27.4 0.00 0.00 0.00 42 1013.5
20260903163030 29 26 11.3 37.0 0.00 0.00 0.00 42 1013.4
20260903162529 29 49 19.3 37.0 0.00 0.00 0.00 42 1013.3
20260903162029 29 59 12.9 35.4 0.00 0.00 0.00 42 1013.3
20260903161529 29 47 16.1 35.4 0.00 0.00 0.00 42 1013.3
20260903161028 30 62 20.9 41.8 0.00 0.00 0.00 42 1013.3
20260903160528 30 19 19.3 41.8 0.00 0.00 0.00 41 1013.2
20260903160027 30 45 20.9 43.5 0.00 0.00 0.00 41 1013.2
20260903155527 30 52 14.5 35.4 0.00 0.00 0.00 41 1013.2
20260903155027 30 28 16.1 35.4 0.00 0.00 0.00 41 1013.1
20260903154527 30 84 17.7 40.2 0.00 0.00 0.00 41 1013.2
20260903154025 30 49 25.7 40.2 0.00 0.00 0.00 41 1013.1
20260903153527 30 63 20.9 37.0 0.00 0.00 0.00 41 1013.0
20260903153025 30 51 16.1 38.6 0.00 0.00 0.00 40 1013.1
20260903152525 30 81 19.3 38.6 0.00 0.00 0.00 40 1013.1
20260903152025 30 76 14.5 38.6 0.00 0.00 0.00 42 1013.2
20260903151529 30 53 14.5 35.4 0.00 0.00 0.00 42 1013.2
20260903151025 30 72 17.7 38.6 0.00 0.00 0.00 43 1013.2
20260903150525 30 49 22.5 38.6 0.00 0.00 0.00 42 1013.3
20260903150024 30 71 20.9 38.6 0.00 0.00 0.00 43 1013.2
20260903145524 30 86 22.5 38.6 0.00 0.00 0.00 43 1013.3
20260903145022 30 81 17.7 37.0 0.00 0.00 0.00 44 1013.3
20260903144522 30 90 19.3 43.5 0.00 0.00 0.00 43 1013.3
20260903144023 30 94 19.3 43.5 0.00 0.00 0.00 44 1013.1
20260903143520 31 23 19.3 35.4 0.00 0.00 0.00 45 1013.1
20260903143020 31 74 17.7 33.8 0.00 0.00 0.00 45 1013.2
20260903142520 31 74 19.3 32.2 0.00 0.00 0.00 43 1013.2
20260903142018 31 38 16.1 35.4 0.00 0.00 0.00 43 1013.2
20260903141518 31 50 20.9 33.8 0.00 0.00 0.00 43 1013.1
20260903141017 32 47 25.7 32.2 0.00 0.00 0.00 42 1013.2
20260903140516 32 61 11.3 35.4 0.00 0.00 0.00 42 1013.2
20260903140030 32 71 17.7 35.4 0.00 0.00 0.00 42 1013.0
20260903135514 32 43 20.9 35.4 0.00 0.00 0.00 42 1013.0
20260903135013 32 24 19.3 35.4 0.00 0.00 0.00 41 1012.8
20260903134518 32 88 20.9 35.4 0.00 0.00 0.00 41 1012.8
20260903134017 32 101 19.3 35.4 0.00 0.00 0.00 41 1012.7
20260903133512 32 59 14.5 33.8 0.00 0.00 0.00 41 1012.7
20260903133012 32 88 17.7 33.8 0.00 0.00 0.00 40 1012.7
20260903132512 32 48 17.7 33.8 0.00 0.00 0.00 41 1012.9
20260903132015 32 99 19.3 33.8 0.00 0.00 0.00 40 1012.9
20260903131512 32 66 16.1 33.8 0.00 0.00 0.00 40 1012.9
20260903131011 32 80 17.7 33.8 0.00 0.00 0.00 40 1012.8
20260903130514 32 60 19.3 30.6 0.00 0.00 0.00 40 1012.9
20260903130130 32 48 17.7 30.6 0.00 0.00 0.00 39 1013.0
20260903125509 32 112 14.5 41.8 0.00 0.00 0.00 41 1013.2
20260903125009 32 69 27.4 41.8 0.00 0.00 0.00 40 1013.3
20260903124509 32 90 16.1 33.8 0.00 0.00 0.00 40 1013.2
20260903124008 32 88 14.5 32.2 0.00 0.00 0.00 40 1013.1
20260903123508 32 23 17.7 35.4 0.00 0.00 0.00 39 1013.2
20260903123014 32 94 14.5 35.4 0.00 0.00 0.00 40 1013.2
20260903122508 32 101 19.3 33.8 0.00 0.00 0.00 40 1013.2
20260903122008 32 79 20.9 38.6 0.00 0.00 0.00 41 1013.2
20260903121508 32 59 20.9 37.0 0.00 0.00 0.00 41 1013.2
20260903121009 32 71 17.7 33.8 0.00 0.00 0.00 41 1013.2
20260903120506 32 90 22.5 37.0 0.00 0.00 0.00 41 1013.2
20260903120006 32 74 27.4 37.0 0.00 0.00 0.00 40 1013.2
20260903115505 32 13 19.3 35.4 0.00 0.00 0.00 41 1013.3
20260903115005 32 80 22.5 35.4 0.00 0.00 0.00 41 1013.3
20260903114508 32 61 20.9 33.8 0.00 0.00 0.00 42 1013.4
20260903114005 32 69 16.1 35.4 0.00 0.00 0.00 42 1013.4
20260903113504 32 97 17.7 37.0 0.00 0.00 0.00 42 1013.4
20260903113004 32 119 19.3 33.8 0.00 0.00 0.00 42 1013.3
20260903112504 32 86 19.3 32.2 0.00 0.00 0.00 42 1013.4
20260903112004 32 92 17.7 32.2 0.00 0.00 0.00 42 1013.4
20260903111504 32 119 16.1 37.0 0.00 0.00 0.00 43 1013.5
20260903111003 32 22 16.1 37.0 0.00 0.00 0.00 43 1013.4
20260903110503 32 98 16.1 37.0 0.00 0.00 0.00 43 1013.5
20260903110002 32 93 20.9 37.0 0.00 0.00 0.00 43 1013.5
20260903105502 32 80 8.0 29.0 0.00 0.00 0.00 43 1013.5
20260903105102 32 42 17.7 30.6 0.00 0.00 0.00 43 1013.5
20260903104500 32 117 11.3 40.2 0.00 0.00 0.00 44 1013.7
20260903104102 32 86 17.7 40.2 0.00 0.00 0.00 44 1013.6
20260903103602 32 109 16.1 38.6 0.00 0.00 0.00 43 1013.6
20260903103100 32 121 17.7 38.6 0.00 0.00 0.00 43 1013.6
20260903102558 32 83 12.9 27.4 0.00 0.00 0.00 43 1013.6
20260903102059 32 84 12.9 33.8 0.00 0.00 0.00 43 1013.7
20260903101602 32 81 20.9 33.8 0.00 0.00 0.00 42 1013.7
20260903101057 32 40 17.7 27.4 0.00 0.00 0.00 41 1013.7
20260903100556 33 105 9.7 20.9 0.00 0.00 0.00 41 1013.7
20260903100055 32 74 8.0 24.1 0.00 0.00 0.00 42 1013.7
20260903095553 32 39 11.3 33.8 0.00 0.00 0.00 42 1013.9
20260903095054 32 60 16.1 33.8 0.00 0.00 0.00 42 1014.0
20260903094604 32 26 11.3 30.6 0.00 0.00 0.00 42 1014.0
20260903094049 32 40 20.9 37.0 0.00 0.00 0.00 43 1014.1
20260903093548 32 40 24.1 33.8 0.00 0.00 0.00 42 1014.1
20260903093049 31 69 20.9 33.8 0.00 0.00 0.00 43 1014.1
20260903092546 31 96 19.3 32.2 0.00 0.00 0.00 42 1014.0
20260903092045 31 35 16.1 37.0 0.00 0.00 0.00 43 1014.1
20260903091543 31 24 25.7 37.0 0.00 0.00 0.00 43 1014.1
20260903091043 31 45 16.1 38.6 0.00 0.00 0.00 43 1014.1
20260903090542 31 118 16.1 38.6 0.00 0.00 0.00 42 1014.1
20260903090054 31 113 11.3 38.6 0.00 0.00 0.00 43 1014.2
20260903085540 31 70 19.3 41.8 0.00 0.00 0.00 44 1014.2
20260903085039 31 92 24.1 41.8 0.00 0.00 0.00 43 1014.3
20260903084538 31 67 20.9 35.4 0.00 0.00 0.00 43 1014.5
20260903084038 31 90 20.9 40.2 0.00 0.00 0.00 43 1014.5
20260903083538 30 74 24.1 40.2 0.00 0.00 0.00 43 1014.5
20260903083053 31 87 20.9 35.4 0.00 0.00 0.00 42 1014.4
20260903082536 31 71 24.1 35.4 0.00 0.00 0.00 41 1014.3
20260903082035 31 65 9.7 30.6 0.00 0.00 0.00 42 1014.5
20260903081535 31 95 16.1 30.6 0.00 0.00 0.00 42 1014.4
20260903081034 31 82 16.1 33.8 0.00 0.00 0.00 42 1014.4
20260903080536 31 61 14.5 33.8 0.00 0.00 0.00 41 1014.4
20260903080033 31 39 9.7 38.6 0.00 0.00 0.00 41 1014.4
20260903075531 30 355 24.1 38.6 0.00 0.00 0.00 41 1014.3
20260903075031 30 55 22.5 41.8 0.00 0.00 0.00 41 1014.4
20260903074531 30 21 27.4 41.8 0.00 0.00 0.00 41 1014.5
20260903074030 30 31 19.3 33.8 0.00 0.00 0.00 40 1014.4
20260903073528 30 38 11.3 40.2 0.00 0.00 0.00 42 1014.5
20260903073027 30 49 16.1 40.2 0.00 0.00 0.00 44 1014.6
20260903072525 29 58 19.3 27.4 0.00 0.00 0.00 46 1014.6
20260903072028 28 132 11.3 32.2 0.00 0.00 0.00 48 1014.5
20260903071524 28 94 14.5 32.2 0.00 0.00 0.00 50 1014.5
20260903071023 28 107 12.9 24.1 0.00 0.00 0.00 51 1014.5
20260903070523 28 103 11.3 22.5 0.00 0.00 0.00 51 1014.5
20260903070023 28 104 11.3 22.5 0.00 0.00 0.00 51 1014.5
20260903065523 28 100 4.8 20.9 0.00 0.00 0.00 51 1014.5
20260903065020 28 145 12.9 20.9 0.00 0.00 0.00 51 1014.4
20260903064519 28 107 11.3 19.3 0.00 0.00 0.00 51 1014.4
20260903064017 28 136 8.0 22.5 0.00 0.00 0.00 51 1014.5
20260903063516 28 45 16.1 22.5 0.00 0.00 0.00 51 1014.4
20260903063026 28 102 9.7 22.5 0.00 0.00 0.00 52 1014.5
20260903062513 28 85 11.3 29.0 0.00 0.00 0.00 53 1014.5
20260903062015 27 138 4.8 29.0 0.00 0.00 0.00 54 1014.5
20260903061512 27 114 4.8 20.9 0.00 0.00 0.00 54 1014.4
20260903061012 27 99 8.0 20.9 0.00 0.00 0.00 54 1014.4
20260903060508 27 82 12.9 22.5 0.00 0.00 0.00 55 1014.4
20260903060022 27 105 9.7 25.7 0.00 0.00 0.00 55 1014.3
20260903055509 27 45 12.9 25.7 0.00 0.00 0.00 56 1014.3
20260903055004 26 74 12.9 25.7 0.00 0.00 0.00 57 1014.2
20260903054504 26 140 14.5 25.7 0.00 0.00 0.00 57 1014.3
20260903054003 26 96 14.5 27.4 0.00 0.00 0.00 57 1014.2
20260903053502 26 89 11.3 27.4 0.00 0.00 0.00 57 1014.4
20260903053002 26 74 16.1 27.4 0.00 0.00 0.00 57 1014.4
20260903052503 26 80 11.3 29.0 0.00 0.00 0.00 57 1014.5
20260903052100 26 109 16.1 29.0 0.00 0.00 0.00 57 1014.5
20260903051607 26 90 16.1 29.0 0.00 0.00 0.00 56 1014.6
20260903051057 26 98 11.3 24.1 0.00 0.00 0.00 55 1014.6
20260903050559 26 113 9.7 25.7 0.00 0.00 0.00 55 1014.5
20260903050054 26 92 14.5 25.7 0.00 0.00 0.00 54 1014.6
20260903045554 26 78 12.9 22.5 0.00 0.00 0.00 54 1014.5
20260903045052 26 111 11.3 20.9 0.00 0.00 0.00 53 1014.4
20260903044552 27 92 11.3 27.4 0.00 0.00 0.00 52 1014.3
20260903044050 27 109 9.7 27.4 0.00 0.00 0.00 51 1014.3
20260903043548 27 92 12.9 29.0 0.00 0.00 0.00 50 1014.4
20260903043047 27 82 19.3 29.0 0.00 0.00 0.00 50 1014.2
20260903042546 27 123 9.7 25.7 0.00 0.00 0.00 50 1014.2
20260903042045 27 38 11.3 17.7 0.00 0.00 0.00 49 1014.1
20260903041544 27 109 11.3 16.1 0.00 0.00 0.00 49 1014.2
20260903041043 27 113 3.2 16.1 0.00 0.00 0.00 49 1014.2
20260903040542 27 121 9.7 16.1 0.00 0.00 0.00 48 1014.2
20260903040057 27 158 4.8 11.3 0.00 0.00 0.00 47 1014.2
20260903035540 27 152 6.4 11.3 0.00 0.00 0.00 46 1014.1
20260903035040 27 172 6.4 9.7 0.00 0.00 0.00 46 1014.0
20260903034542 27 167 4.8 11.3 0.00 0.00 0.00 45 1014.0
20260903034041 27 140 4.8 11.3 0.00 0.00 0.00 45 1014.0
20260903033539 27 123 4.8 12.9 0.00 0.00 0.00 44 1014.0
20260903033039 27 98 4.8 12.9 0.00 0.00 0.00 44 1014.0
20260903032539 27 111 4.8 11.3 0.00 0.00 0.00 44 1014.0
20260903032038 27 69 6.4 14.5 0.00 0.00 0.00 44 1014.1
20260903031538 27 88 6.4 14.5 0.00 0.00 0.00 44 1014.1
20260903031038 27 360 6.4 17.7 0.00 0.00 0.00 44 1014.0
20260903030538 27 67 3.2 22.5 0.00 0.00 0.00 44 1014.0
20260903030039 27 60 9.7 22.5 0.00 0.00 0.00 43 1014.0
20260903025537 27 9 6.4 17.7 0.00 0.00 0.00 43 1014.1
20260903025039 27 57 8.0 17.7 0.00 0.00 0.00 43 1014.0
20260903024537 27 57 8.0 16.1 0.00 0.00 0.00 43 1014.0
20260903024036 27 65 8.0 16.1 0.00 0.00 0.00 43 1014.1
20260903023535 27 22 4.8 19.3 0.00 0.00 0.00 43 1014.2
20260903023050 27 38 9.7 20.9 0.00 0.00 0.00 43 1014.2
20260903022536 27 49 11.3 20.9 0.00 0.00 0.00 43 1014.2
20260903022036 27 40 11.3 24.1 0.00 0.00 0.00 43 1014.1
20260903021535 27 55 11.3 24.1 0.00 0.00 0.00 43 1014.1
20260903021035 27 73 12.9 22.5 0.00 0.00 0.00 43 1014.2
20260903020534 27 22 11.3 22.5 0.00 0.00 0.00 43 1014.1
20260903020034 27 30 16.1 24.1 0.00 0.00 0.00 42 1014.1
20260903015534 27 22 11.3 24.1 0.00 0.00 0.00 43 1014.1
20260903015034 27 79 9.7 19.3 0.00 0.00 0.00 43 1014.1
20260903014544 27 75 11.3 19.3 0.00 0.00 0.00 43 1014.1
20260903014034 27 43 4.8 17.7 0.00 0.00 0.00 43 1014.1
20260903013533 27 80 4.8 19.3 0.00 0.00 0.00 43 1014.1
20260903013042 27 85 11.3 19.3 0.00 0.00 0.00 44 1014.1
20260903012532 27 128 6.4 16.1 0.00 0.00 0.00 44 1014.2
20260903012033 27 123 8.0 17.7 0.00 0.00 0.00 44 1014.1
20260903011532 27 127 6.4 17.7 0.00 0.00 0.00 44 1014.2
20260903011032 27 123 4.8 16.1 0.00 0.00 0.00 44 1014.2
20260903010532 27 98 6.4 17.7 0.00 0.00 0.00 44 1014.2
20260903010042 27 96 9.7 20.9 0.00 0.00 0.00 44 1014.2
20260903005530 27 98 14.5 20.9 0.00 0.00 0.00 44 1014.2
20260903005032 27 70 9.7 20.9 0.00 0.00 0.00 43 1014.2
20260903004530 27 78 12.9 22.5 0.00 0.00 0.00 43 1014.2
20260903004030 27 81 14.5 24.1 0.00 0.00 0.00 43 1014.3
20260903003530 27 75 14.5 24.1 0.00 0.00 0.00 43 1014.3
20260903003028 27 65 12.9 27.4 0.00 0.00 0.00 43 1014.2
20260903002531 27 55 12.9 22.5 0.00 0.00 0.00 43 1014.2
20260903002032 27 71 9.7 22.5 0.00 0.00 0.00 43 1014.2
20260903001531 27 125 14.5 22.5 0.00 0.00 0.00 43 1014.2
20260903001027 27 123 9.7 24.1 0.00 0.00 0.00 43 1014.2
20260903000527 27 109 14.5 29.0 0.00 0.00 0.00 42 1014.2
20260903000027 28 93 17.7 29.0 0.00 0.00 0.00 42 1014.2
20260902235526 28 53 19.3 32.2 0.00 0.00 0.00 42 1014.2
20260902235025 27 82 16.1 32.2 0.00 0.00 0.00 43 1014.2
20260902234540 27 77 16.1 22.5 0.00 0.00 0.00 43 1014.2
20260902234027 27 83 16.1 22.5 0.00 0.00 0.00 43 1014.2
20260902233524 27 78 14.5 25.7 0.00 0.00 0.00 43 1014.4
20260902233024 27 51 9.7 25.7 0.00 0.00 0.00 43 1014.4
20260902232527 27 78 12.9 27.4 0.00 0.00 0.00 43 1014.4
20260902232023 28 81 16.1 27.4 0.00 0.00 0.00 42 1014.4
20260902231532 28 96 14.5 27.4 0.00 0.00 0.00 42 1014.3
20260902231024 28 98 12.9 27.4 0.00 0.00 0.00 42 1014.3
20260902230522 28 81 16.1 25.7 0.00 0.00 0.00 42 1014.4
20260902230022 28 88 16.1 30.6 0.00 0.00 0.00 42 1014.4
20260902225521 28 69 14.5 30.6 0.00 0.00 0.00 42 1014.5
20260902225021 28 89 19.3 29.0 0.00 0.00 0.00 42 1014.4
20260902224519 28 88 19.3 29.0 0.00 0.00 0.00 42 1014.5
20260902224018 27 69 17.7 25.7 0.00 0.00 0.00 42 1014.5
20260902223517 27 94 14.5 24.1 0.00 0.00 0.00 43 1014.5
20260902223016 27 105 12.9 24.1 0.00 0.00 0.00 44 1014.6
20260902222515 26 113 4.8 8.0 0.00 0.00 0.00 44 1014.7
20260902222015 26 65 3.2 9.7 0.00 0.00 0.00 45 1014.8
20260902221517 26 71 6.4 9.7 0.00 0.00 0.00 44 1014.8
20260902221012 26 61 4.8 9.7 0.00 0.00 0.00 44 1014.9
20260902220511 27 49 4.8 9.7 0.00 0.00 0.00 43 1015.0
20260902220020 27 42 3.2 8.0 0.00 0.00 0.00 43 1014.9
20260902215509 27 28 3.2 12.9 0.00 0.00 0.00 42 1015.0
20260902215011 27 59 4.8 12.9 0.00 0.00 0.00 42 1015.0
20260902214509 27 55 4.8 11.3 0.00 0.00 0.00 42 1015.0
20260902214006 28 30 4.8 14.5 0.00 0.00 0.00 41 1015.0
20260902213504 28 77 4.8 17.7 0.00 0.00 0.00 41 1015.0
20260902213002 28 72 6.4 17.7 0.00 0.00 0.00 41 1015.0
20260902212502 27 85 9.7 14.5 0.00 0.00 0.00 41 1015.0
20260902212003 27 87 8.0 14.5 0.00 0.00 0.00 42 1015.1
20260902211603 27 75 9.7 14.5 0.00 0.00 0.00 42 1015.1
20260902211101 27 47 6.4 12.9 0.00 0.00 0.00 43 1015.1
20260902210604 27 17 4.8 6.4 0.00 0.00 0.00 43 1015.2
20260902210058 27 350 4.8 6.4 0.00 0.00 0.00 42 1015.2
20260902205557 27 360 3.2 8.0 0.00 0.00 0.00 42 1015.2
20260902205101 28 74 0.0 9.7 0.00 0.00 0.00 41 1015.2
20260902204557 28 71 3.2 12.9 0.00 0.00 0.00 41 1015.2
20260902204056 28 96 8.0 12.9 0.00 0.00 0.00 41 1015.1
20260902203556 28 69 3.2 6.4 0.00 0.00 0.00 41 1015.2
20260902203056 28 33 1.6 4.8 0.00 0.00 0.00 41 1015.2
20260902202556 28 19 0.0 8.0 0.00 0.00 0.00 41 1015.2
20260902202056 28 18 3.2 8.0 0.00 0.00 0.00 41 1015.3
20260902201556 28 355 4.8 8.0 0.00 0.00 0.00 41 1015.3
20260902201055 28 355 4.8 8.0 0.00 0.00 0.00 41 1015.3
20260902200555 28 29 3.2 8.0 0.00 0.00 0.00 41 1015.3
20260902200055 28 17 3.2 6.4 0.00 0.00 0.00 40 1015.4
20260902195558 28 360 0.0 4.8 0.00 0.00 0.00 40 1015.4
20260902195055 28 360 3.2 6.4 0.00 0.00 0.00 40 1015.3
20260902194555 28 355 3.2 6.4 0.00 0.00 0.00 40 1015.4
20260902194054 28 355 0.0 4.8 0.00 0.00 0.00 40 1015.5
20260902193554 28 355 0.0 4.8 0.00 0.00 0.00 40 1015.5
20260902193055 28 355 1.6 4.8 0.00 0.00 0.00 40 1015.5
20260902192553 28 331 3.2 4.8 0.00 0.00 0.00 40 1015.5
20260902192056 28 321 1.6 4.8 0.00 0.00 0.00 39 1015.5
20260902191554 28 328 0.0 1.6 0.00 0.00 0.00 39 1015.4
20260902191053 28 331 0.0 4.8 0.00 0.00 0.00 39 1015.5
20260902190553 28 331 0.0 4.8 0.00 0.00 0.00 39 1015.4
20260902190053 28 323 1.6 4.8 0.00 0.00 0.00 39 1015.3
20260902185553 28 342 0.0 4.8 0.00 0.00 0.00 39 1015.4
20260902185057 28 340 0.0 4.8 0.00 0.00 0.00 39 1015.4
20260902184552 29 309 1.6 14.5 0.00 0.00 0.00 38 1015.3